User: anonymous   Login
Location: Grange Verzio
(44.5000°N, 6.9833°E)
Time: 05:19:02
(UTC+00:00)
Language:

Cosmos 1892 Rocket - Orbit

View from above orbital plane
View from above orbital plane
View from above satellite
View from above satellite

Ground track
Ground track

The orbit data is extracted from the following two-line orbital elements,

1 18422U 87088B   23151.46286239  .00000528  00000-0  60949-4 0  9997
2 18422  82.5101 298.9874 0020764 114.5054 245.8329 14.83579327902993
Epoch (UTC): 31 May 2023 11:06:31
Eccentricity: 0.0020764
inclination: 82.5101°
perigee height: 603 km
apogee height: 632 km
right ascension of ascending node: 298.9874°
argument of perigee: 114.5054°
revolutions per day: 14.83579327
mean anomaly at epoch: 245.8329°
orbit number at epoch: 90299

The dashed part of the orbit path shows where the satellite is in the earth's shadow,  

DLR